This is the latest recevied weather packets stored in our database for station/object HJ3JCG-13. If no packets are shown the sender has not sent any weather packets the latest 1 day(s).
| Time | Temp. | Humidity | Pressure | Rain* | Wind** | Luminosity | Snow |
|---|---|---|---|---|---|---|---|
| 1778105269 | 16.11° C | 85% | 1015 hPa | 0 mm | - | - | - |
| 1778104668 | 15° C | 85% | 1015 hPa | 0 mm | - | - | - |
| 1778103467 | 15° C | 85% | 1015 hPa | 0 mm | - | - | - |
| 1778101665 | 16.11° C | 85% | 1014 hPa | 0 mm | - | - | - |
| 1778098662 | 16.67° C | 84% | 1014 hPa | 0 mm | - | - | - |
| 1778096260 | 16.11° C | 80% | 1014 hPa | 0 mm | - | - | - |
| 1778095659 | 17.78° C | 80% | 1015 hPa | 0 mm | - | - | - |
| 1778093257 | 17.78° C | 92% | 1015 hPa | 0 mm | - | - | - |
| 1778090254 | 15.56° C | 92% | 1017 hPa | 0 mm | - | - | - |
| 1778089053 | 13.33° C | 92% | 1017 hPa | 0 mm | - | - | - |
| 1778087852 | 13.33° C | 92% | 1019 hPa | 0 mm | - | - | - |
| 1778086050 | 13.33° C | 92% | 1019 hPa | 0 mm | - | - | - |
| 1778083648 | 14.44° C | 92% | 1019 hPa | 0 mm | - | - | - |
| 1778082447 | 14.44° C | 92% | 1020 hPa | 0 mm | - | - | - |
| 1778081246 | 14.44° C | 92% | 1019 hPa | 0 mm | - | - | - |
| 1778078243 | 13.33° C | 93% | 1020 hPa | 0 mm | - | - | - |
| 1778077042 | 14.44° C | 96% | 1019 hPa | 0 mm | - | - | - |
| 1778075841 | 12.78° C | 99% | 1020 hPa | 0 mm | - | - | - |
| 1778074640 | 11.67° C | 99% | 1020 hPa | 0 mm | - | - | - |
| 1778074039 | 11.67° C | 99% | 1020 hPa | 0 mm | - | - | - |
| 1778071637 | 11.11° C | 99% | 1020 hPa | 0 mm | - | - | - |
| 1778070436 | 11.11° C | 98% | 1020 hPa | 0 mm | - | - | - |
| 1778069235 | 10.56° C | 98% | 1020 hPa | 0 mm | - | - | - |
| 1778067433 | 10.56° C | 98% | 1020 hPa | 0 mm | - | - | - |
| 1778066232 | 10.56° C | 98% | 1020 hPa | 0 mm | - | - | - |
* Rain latest hour (hover to see other rain measurements)
** Current wind speed in m/s (hover to see current wind gust speed)